Orbital Elements at Epoch 2459200.5 (2020-Dec-17.0) TDB
Reference: JPL 18 (heliocentric ecliptic J2000)
Element | Value | Uncertainty (1-sigma) | Units |
e | .1691286878505213 | 3.0252e-08 | |
a | 2.417766794536525 | 8.9079e-09 | au |
q | 2.008853069048001 | 7.3798e-08 | au |
i | 2.493554372044986 | 4.7594e-06 | deg |
node | 229.3573160863489 | 9.1337e-05 | deg |
peri | 217.5099053127221 | 9.3079e-05 | deg |
M | 173.7690335940086 | 1.7533e-05 | deg |
tp | 2458537.688667840172 (2019-Feb-23.18866784) | 6.5395e-05 | TDB |
period | 1373.15650920306 3.76 | 7.5888e-06 2.078e-08 | d yr |
n | .262169678100957 | 1.4489e-09 | deg/d |
Q | 2.826680520025048 | 1.0415e-08 | au |
|
| | Orbit Determination Parameters
Additional Information
|